CW7054 Weather Reports


Display with metric or nautical units.
time (UTC)temp
F
wind
direction
speed
MPH
gust
MPH
rain 1hr
in
rain 24hr
in
rain mn
in
humidity
%
barometer
mb
20260901233052 67 65 3.0 13.0 0.01 0.18 0.14 91 1015.4
20260901231544 68 76 3.0 11.0 0.01 0.18 0.14 90 1015.1
20260901230047 68 19 2.0 13.0 0.01 0.17 0.13 90 1015.2
20260901224541 69 40 2.0 12.0 0.01 0.17 0.13 91 1014.9
20260901223037 71 84 2.0 9.0 0.01 0.17 0.13 92 1014.8
20260901221601 72 87 1.0 9.0 0.01 0.17 0.13 93 1014.7
20260901220035 73 57 0.0 4.0 0.01 0.16 0.12 92 1014.7
20260901214536 73 47 1.0 5.0 0.01 0.17 0.12 92 1014.8
20260901213038 73 58 0.0 5.0 0.01 0.17 0.12 92 1014.7
20260901211537 74 71 0.0 3.0 0.02 0.17 0.12 92 1014.6
20260901210037 74 71 1.0 5.0 0.01 0.16 0.11 92 1014.4
20260901204535 75 180 0.0 1.0 0.01 0.17 0.11 93 1014.3
20260901203045 75 180 0.0 0.0 0.01 0.17 0.11 94 1014.2
20260901201535 75 181 0.0 1.0 0.00 0.16 0.10 94 1014.1
20260901200026 74 181 0.0 2.0 0.00 0.16 0.10 94 1014.0
20260901194520 74 181 0.0 0.0 0.00 0.17 0.10 95 1014.0
20260901193018 74 181 0.0 1.0 0.01 0.17 0.10 95 1013.9
20260901191518 74 181 0.0 3.0 0.01 0.17 0.10 95 1013.9
20260901190011 74 180 0.0 1.0 0.01 0.17 0.10 96 1014.1
20260901184504 73 182 0.0 3.0 0.01 0.17 0.10 96 1014.2
20260901183106 73 183 0.0 4.0 0.00 0.16 0.09 96 1014.2
20260901181556 73 180 0.0 1.0 0.00 0.16 0.09 96 1014.3
20260901180052 73 180 0.0 1.0 0.00 0.16 0.09 96 1014.2
20260901174548 73 179 0.0 5.0 0.00 0.16 0.09 97 1014.2
20260901173043 72 173 0.0 6.0 0.00 0.16 0.09 96 1014.4
20260901171540 71 175 0.0 1.0 0.00 0.16 0.09 96 1014.6
20260901170037 71 175 0.0 1.0 0.00 0.16 0.09 95 1015.0
20260901164536 71 175 0.0 0.0 0.00 0.17 0.09 95 1014.9
20260901163034 71 175 0.0 0.0 0.00 0.17 0.09 95 1015.2
20260901161539 71 175 0.0 3.0 0.00 0.17 0.09 95 1015.2
20260901160047 71 175 0.0 4.0 0.00 0.17 0.09 95 1015.6
20260901154531 71 177 0.0 3.0 0.00 0.18 0.09 95 1015.4
20260901153036 71 176 0.0 3.0 0.00 0.18 0.09 96 1015.4
20260901151529 71 176 0.0 2.0 0.00 0.18 0.09 96 1015.8
20260901150032 70 176 0.0 1.0 0.01 0.18 0.09 95 1015.8
20260901144528 70 176 0.0 1.0 0.01 0.18 0.09 95 1016.3
20260901143030 70 176 0.0 1.0 0.01 0.18 0.09 95 1016.2
20260901141527 70 176 0.0 2.0 0.01 0.18 0.09 95 1015.8
20260901140027 71 176 0.0 3.0 0.00 0.17 0.08 95 1015.8
20260901134544 70 160 0.0 3.0 0.01 0.18 0.08 95 1015.6
20260901133025 70 157 0.0 3.0 0.01 0.18 0.08 96 1015.5
20260901131523 70 155 0.0 0.0 0.01 0.18 0.08 96 1015.8
20260901130022 70 155 0.0 0.0 0.01 0.18 0.08 95 1015.9
20260901124526 69 155 0.0 1.0 0.01 0.18 0.07 95 1015.9
20260901123021 70 155 0.0 1.0 0.01 0.18 0.07 95 1015.8
20260901121520 69 155 0.0 2.0 0.01 0.18 0.07 95 1015.9
20260901120019 69 155 0.0 1.0 0.01 0.18 0.07 95 1016.2
20260901114526 69 156 0.0 1.0 0.00 0.17 0.06 95 1016.0
20260901113019 69 156 0.0 0.0 0.01 0.17 0.06 95 1015.9
20260901111517 69 156 0.0 0.0 0.01 0.17 0.06 94 1016.0
20260901110016 69 156 0.0 1.0 0.01 0.17 0.06 94 1016.1
20260901104515 69 156 0.0 1.0 0.01 0.18 0.06 94 1016.0
20260901103013 69 155 0.0 1.0 0.01 0.17 0.05 94 1015.9
20260901101513 69 155 0.0 2.0 0.01 0.17 0.05 94 1015.9
20260901100013 69 137 0.0 0.0 0.01 0.17 0.05 94 1015.7
20260901094512 69 137 0.0 1.0 0.01 0.18 0.05 94 1015.7
20260901093017 69 137 0.0 0.0 0.01 0.17 0.04 93 1016.0
20260901091509 69 137 0.0 0.0 0.01 0.17 0.04 93 1016.1
20260901090010 69 137 0.0 0.0 0.01 0.17 0.04 93 1016.1
20260901084522 69 137 0.0 0.0 0.01 0.17 0.04 93 1016.3
20260901083006 69 137 0.0 0.0 0.00 0.16 0.03 92 1016.3
20260901081505 69 137 0.0 0.0 0.01 0.16 0.03 92 1016.3
20260901080006 69 137 0.0 0.0 0.01 0.16 0.03 92 1016.4
20260901074503 70 137 0.0 0.0 0.01 0.17 0.03 92 1016.5
20260901073001 70 137 0.0 0.0 0.01 0.17 0.03 91 1016.4
20260901071600 70 137 0.0 0.0 0.00 0.16 0.02 91 1016.5
20260901070103 71 137 0.0 0.0 0.01 0.16 0.02 91 1016.6
20260901064557 71 137 0.0 1.0 0.01 0.16 0.02 91 1016.6
20260901063055 71 137 0.0 1.0 0.01 0.16 0.02 91 1016.7
20260901061553 71 137 0.0 0.0 0.01 0.16 0.02 91 1016.9
20260901060052 71 137 0.0 0.0 0.00 0.15 0.01 91 1017.1
20260901054551 71 137 0.0 0.0 0.01 0.16 0.01 90 1017.1
20260901053106 71 137 0.0 1.0 0.01 0.16 0.01 90 1017.1
20260901051549 71 137 0.0 0.0 0.01 0.16 0.01 90 1017.2
20260901050048 71 137 0.0 0.0 0.01 0.16 0.01 90 1017.2
20260901044614 71 137 0.0 2.0 0.00 0.15 0.00 90 1017.2
20260901043046 71 136 0.0 1.0 0.00 0.15 0.00 90 1017.2
20260901041544 71 136 0.0 0.0 0.00 0.15 0.00 90 1017.3
20260901040042 71 136 0.0 0.0 0.01 0.15 0.00 89 1017.5
20260901034550 71 136 0.0 1.0 0.01 0.16 0.15 89 1017.6
20260901033045 71 136 0.0 0.0 0.01 0.16 0.15 89 1017.7
20260901031546 71 136 0.0 1.0 0.01 0.16 0.15 88 1017.7
20260901030039 71 136 0.0 0.0 0.00 0.15 0.14 88 1017.6
20260901024539 71 136 0.0 1.0 0.01 0.15 0.14 87 1017.7
20260901023041 71 136 0.0 0.0 0.01 0.15 0.14 87 1017.8
20260901021552 71 136 0.0 0.0 0.01 0.15 0.14 86 1017.9
20260901020058 71 136 0.0 0.0 0.01 0.15 0.14 86 1018.0
20260901014536 71 136 0.0 1.0 0.00 0.15 0.13 86 1018.1
20260901013042 71 136 0.0 1.0 0.00 0.15 0.13 86 1018.1
20260901011540 71 136 0.0 1.0 0.01 0.15 0.13 85 1018.2
20260901010037 71 79 0.0 0.0 0.01 0.15 0.13 85 1018.2
20260901004537 71 78 0.0 0.0 0.01 0.16 0.13 84 1017.8
20260901003038 71 78 0.0 0.0 0.01 0.16 0.13 84 1017.9
20260901001537 71 78 0.0 0.0 0.00 0.15 0.12 84 1018.0
20260901000034 71 78 0.0 0.0 0.01 0.15 0.12 84 1018.1
20260831234541 71 77 0.0 0.0 0.01 0.15 0.12 83 1018.3